Regional Weather Roundup
Issued by NWS

Home | Current Version | Previous Version | Text Only | Print | Product List | Glossary Off
Versions: 1 2 3 4 5 6 7 8 9 10 11 12 13 14 15 16 17 18 19 20 21 22 23 24 25 26 27 28 29 30 31 32 33 34 35 36 37 38 39 40 41 42 43 44 45 46 47 48 49 50

000
ASUS45 KSLC 301010
RWRUT

UTAH REGIONAL WEATHER ROUNDUP
NATIONAL WEATHER SERVICE SALT LAKE CITY UT
300 AM MST FRI JAN 30 2015

UTZ001>011-023>025-301100-

NORTHERN UTAH

CITY           SKY/WX    TMP DP  RH WIND       PRES   REMARKS
BRIGHAM CITY   CLOUDY    38  34  85 N6        30.23S WCI  33
HILL AFB       CLOUDY    37  33  84 S5        30.21R WCI  34
LOGAN          CLOUDY    32  31  96 W3        30.24S FOG
OGDEN          CLOUDY    37  34  89 S6        30.21S WCI  32
PROVO AIRPORT  CLOUDY    37  34  87 CALM      30.21F
SALT LAKE CITY CLOUDY    38  36  92 W5        30.21F WCI  34
VERNAL         LGT RAIN  35  33  92 NW3       30.27F
WENDOVER       CLOUDY    39  32  75 CALM      30.22F
HEBER CITY     MIX PCPN  34  32  93 CALM      30.22F
WEST JORDAN    CLOUDY    37  37 100 CALM      30.22S

$$

UTZ012>022-026-027-301100-

SOUTHERN/CENTRAL UTAH

CITY           SKY/WX    TMP DP  RH WIND       PRES   REMARKS
BLANDING       CLOUDY    40  26  56 SE16G25   30.31F WCI  32
BRYCE CANYON   LGT SNOW  32  31  96 NE8       30.17F FOG     WCI  25
CEDAR CITY     CLOUDY    37  35  92 NW5       30.12F FOG     WCI  33
DELTA          CLOUDY    37  37  99 CALM      30.19F VSB 3/4
HANKSVILLE     CLOUDY    39  37  93 CALM      30.24F
MILFORD        LGT RAIN  39  38  96 N10       30.16F FOG     WCI  32
MOAB/CYNLANDS  LGT RAIN  41  38  89 NW3       30.20F
PRICE          MIX PCPN  37  34  89 CALM      30.24F
ST GEORGE      CLOUDY    48  43  81 NE6       30.12S
KANAB            N/A     41  37  87 N7        30.16F

$$

REGIONAL REPORTS     COLORADO/ARIZONA

CITY           SKY/WX    TMP DP  RH WIND       PRES   REMARKS
CRAIG, CO        N/A     31  29  92 CALM      30.28F
GRAND JUNCTION CLOUDY    39  32  76 CALM      30.23F
RIFLE          CLOUDY    36  29  75 S3        30.25F
MONTROSE       CLOUDY    38  29  70 S9        30.27S WCI  31
CORTEZ         CLOUDY    43  29  57 CALM      30.25F
PAGE, AZ       NOT AVBL
GRAND CANYON   LGT RAIN  37  35  92 E10       30.10F WCI  30
KINGMAN        LGT RAIN  48  47  96 N6        30.03S
FLAGSTAFF      LGT RAIN  38  36  92 E7        30.08F FOG     WCI  33

$$

REGIONAL REPORTS    NEVADA/IDAHO/WYOMING

CITY           SKY/WX    TMP DP  RH WIND       PRES   REMARKS
LAS VEGAS, NV  CLOUDY    58  40  51 NE5       29.99F
ELY            CLOUDY    35  34  96 CALM      30.18F
ELKO           CLOUDY    38  32  79 CALM      30.18F
POCATELLO, ID  CLEAR     27  27 100 W5        30.26R WCI  22
BURLEY         CLOUDY    33  29  85 E3        30.24S
EVANSTON, WY   CLOUDY    30  26  85 N3        30.24S
ROCK SPRINGS   CLOUDY    29  26  89 SW6       30.24S WCI  23
KEMMERER       CLOUDY    25  21  86 N8        30.25F WCI  16

$$



USA.gov is the U.S. government's official web portal to all federal, state and local government web resources and services.